Regional Weather Roundup
Issued by NWS

Home | Current Version | Previous Version | Graphics & Text | Print | Product List | Glossary On
Versions: 1 2 3 4 5 6 7 8 9 10 11 12 13 14 15 16 17 18 19 20 21 22 23 24 25 26 27 28 29 30 31 32 33 34 35 36 37 38 39 40 41 42 43 44 45 46 47 48 49 50
000
ASUS45 KSLC 301510
RWRUT

UTAH REGIONAL WEATHER ROUNDUP
NATIONAL WEATHER SERVICE SALT LAKE CITY UT
900 AM MDT SAT JUL 30 2016

UTZ001>011-023>025-301600-

NORTHERN UTAH

CITY           SKY/WX    TMP DP  RH WIND       PRES   REMARKS
BRIGHAM CITY     N/A     75  42  30 CALM      29.97F
HILL AFB       MOSUNNY   75  40  28 E15       30.01R
LOGAN          SUNNY     68  48  48 N5        30.00R
OGDEN          SUNNY     76  42  29 S9        29.98R
PROVO AIRPORT  PTSUNNY   73  43  33 CALM      30.02S
SALT LAKE CITY MOSUNNY   81  45  28 E8        29.96S
VERNAL         SUNNY     75  36  24 CALM      30.09R
WENDOVER       CLOUDY    81  43  26 E8        29.97S
HEBER CITY     PTSUNNY   63  46  55 CALM      30.12R
WEST JORDAN    SUNNY     84  43  23 S15       30.00S

$$

UTZ012>022-026-027-301600-

SOUTHERN/CENTRAL UTAH

CITY           SKY/WX    TMP DP  RH WIND       PRES   REMARKS
BLANDING       MOSUNNY   76  44  31 S7        30.25R
BRYCE CANYON   SUNNY     74  42  31 W7        30.29R
CEDAR CITY     SUNNY     78  46  32 SW15      30.13R
DELTA          PTSUNNY   79  41  25 S9        30.04R
MILFORD        SUNNY     76  46  34 S15       30.06R
MOAB/CYNLANDS  CLOUDY    86  41  20 VRB5      30.02R
PRICE          PTSUNNY   82  37  20 SW14G26   30.12R
ST GEORGE      PTSUNNY   88  55  33 W13       29.99R

$$

REGIONAL REPORTS     COLORADO/ARIZONA

CITY           SKY/WX    TMP DP  RH WIND       PRES   REMARKS
CRAIG, CO      SUNNY     63  42  46 CALM      30.19R
GRAND JUNCTION CLOUDY    78  40  25 SE9       30.07R
RIFLE          SUNNY     69  39  33 CALM      30.15R
MONTROSE       CLOUDY    77  43  29 S8        30.14F
CORTEZ         CLOUDY    72  50  45 CALM      30.18R
PAGE, AZ       PTSUNNY   87  44  22 NW3       30.01R
GRAND CANYON   MOSUNNY   73  52  47 CALM      30.25R
KINGMAN        PTSUNNY   77  59  53 SW22      30.02R
FLAGSTAFF      PTSUNNY   66  52  60 SW6       30.28R

$$

REGIONAL REPORTS    NEVADA/IDAHO/WYOMING

CITY           SKY/WX    TMP DP  RH WIND       PRES   REMARKS
LAS VEGAS, NV  MOSUNNY   89  59  36 S7        29.87R
ELY            PTSUNNY   61  46  57 S10       30.17R
ELKO           CLOUDY    78  43  28 SW7       30.03S
POCATELLO, ID  MOSUNNY   76  42  29 CALM      29.97F
BURLEY         LGT RAIN  68  52  56 E12       29.90F
EVANSTON, WY   SUNNY     69  34  27 SW5       30.20S
ROCK SPRINGS   SUNNY     67  44  43 SE3       30.18S
KEMMERER         N/A     64  34  32 N6        30.21S

$$



USA.gov is the U.S. government's official web portal to all federal, state and local government web resources and services.